Liberal, KS

12:21 PM CST on February 08, 2016 (GMT -0600)
Liberal Municipal

Weather History for KLBL - May, 2014

Change the Weather History Date:

Tuesday, May 13, 2014

  Actual Average Record
Temperature  
Mean Temperature 48 °F -  
Max Temperature 60 °F 78 °F 98 °F (1974)
Min Temperature 35 °F 49 °F 30 °F (1966)
Degree Days  
Heating Degree Days 18    
Moisture  
Dew Point 23 °F    
Average Humidity 40    
Maximum Humidity 65    
Minimum Humidity 22    
Precipitation  
Precipitation 0.00 in - - ()
Sea Level Pressure  
Sea Level Pressure 30.34 in    
Wind  
Wind Speed 13 mph (NNW)    
Max Wind Speed 22 mph    
Max Gust Speed 32 mph    
Visibility 10 miles    
Events      
Averages and records for this station are not official NWS values.
T = Trace of Precipitation, MM = Missing Value Source: NWS Daily Summary

Daily Weather History Graph

Daily Weather History Graph

Search for Another Location

Airport or City:

Trip Planner

Search our weather history database for the weather conditions in past years. The results will help you decide how hot, cold, wet, or windy it might be!

Date:

Astronomy

May. 13, 2014 Rise Set
Actual Time 6:37 AM CDT 8:43 PM CDT
Civil Twilight 6:08 AM CDT 9:12 PM CDT
Nautical Twilight 5:33 AM CDT 9:47 PM CDT
Astronomical Twilight 4:55 AM CDT 10:26 PM CDT
Moon 7:48 PM CDT (5/13) 5:52 AM CDT (5/13)
Length of Visible Light 15h 03m
Length of Day
14h 06m
Waxing Gibbous, 99% of the Moon is Illuminated
May 13
Waxing Gibbous
May 14
Full
May 21
Last Quarter
May 28
New
Jun 5
First Quarter

Hourly Weather History & Observations

Time (CDT) Temp. Windchill Dew Point Humidity Pressure Visibility Wind Dir Wind Speed Gust Speed Precip Events Conditions
12:15 AM 42.8 °F 37.0 °F 26.6 °F 53% 30.30 in 10.0 mi NW 10.4 mph - N/A   Partly Cloudy
12:35 AM 42.8 °F 38.0 °F 28.4 °F 57% 30.30 in 10.0 mi NW 8.1 mph - N/A   Clear
1:15 AM 39.2 °F 33.0 °F 26.6 °F 61% 30.29 in 10.0 mi NW 9.2 mph - N/A   Clear
1:35 AM 39.2 °F 33.0 °F 26.6 °F 61% 30.28 in 10.0 mi NNW 9.2 mph - N/A   Clear
1:55 AM 39.2 °F 34.2 °F 26.6 °F 61% 30.31 in 10.0 mi WNW 6.9 mph - N/A   Clear
2:35 AM 39.2 °F 32.0 °F 26.6 °F 61% 30.30 in 10.0 mi NW 11.5 mph - N/A   Clear
2:55 AM 39.2 °F 31.2 °F 26.6 °F 61% 30.29 in 10.0 mi NW 13.8 mph - N/A   Clear
3:15 AM 39.2 °F 31.6 °F 26.6 °F 61% 30.30 in 10.0 mi NW 12.7 mph - N/A   Clear
3:35 AM 39.2 °F 31.6 °F 26.6 °F 61% 30.30 in 10.0 mi NW 12.7 mph - N/A   Clear
3:55 AM 39.2 °F 31.2 °F 24.8 °F 56% 30.29 in 10.0 mi NW 13.8 mph - N/A   Clear
4:15 AM 39.2 °F 30.8 °F 24.8 °F 56% 30.30 in 10.0 mi NW 15.0 mph - N/A   Clear
4:35 AM 37.4 °F 28.9 °F 24.8 °F 60% 30.30 in 10.0 mi NW 13.8 mph - N/A   Clear
4:55 AM 37.4 °F 28.5 °F 24.8 °F 60% 30.29 in 10.0 mi NW 15.0 mph - N/A   Clear
5:15 AM 37.4 °F 29.3 °F 24.8 °F 60% 30.29 in 10.0 mi NW 12.7 mph - N/A   Clear
5:35 AM 37.4 °F 29.3 °F 24.8 °F 60% 30.30 in 10.0 mi NW 12.7 mph - N/A   Clear
5:55 AM 37.4 °F 28.9 °F 24.8 °F 60% 30.31 in 10.0 mi NW 13.8 mph - N/A   Clear
6:15 AM 35.6 °F 27.1 °F 24.8 °F 65% 30.32 in 10.0 mi NW 12.7 mph - N/A   Clear
6:35 AM 35.6 °F 27.1 °F 24.8 °F 65% 30.33 in 10.0 mi NW 12.7 mph - N/A   Clear
6:55 AM 37.4 °F 28.9 °F 24.8 °F 60% 30.32 in 10.0 mi NW 13.8 mph - N/A   Clear
7:15 AM 37.4 °F 28.5 °F 24.8 °F 60% 30.34 in 10.0 mi NW 15.0 mph - N/A   Clear
8:15 AM 42.8 °F 34.5 °F 26.6 °F 53% 30.36 in 10.0 mi NNW 18.4 mph 24.2 mph N/A   Clear
8:35 AM 44.6 °F 36.4 °F 26.6 °F 49% 30.37 in 10.0 mi NNW 20.7 mph - N/A   Clear
8:55 AM 46.4 °F 39.0 °F 26.6 °F 46% 30.37 in 10.0 mi NNW 19.6 mph - N/A   Clear
9:15 AM 46.4 °F 39.0 °F 26.6 °F 46% 30.38 in 10.0 mi North 19.6 mph - N/A   Clear
9:55 AM 50.0 °F - 26.6 °F 40% 30.40 in 10.0 mi North 18.4 mph 24.2 mph N/A   Clear
11:35 AM 53.6 °F - 24.8 °F 33% 30.41 in 10.0 mi NNE 18.4 mph 29.9 mph N/A   Partly Cloudy
11:55 AM 53.6 °F - 24.8 °F 33% 30.40 in 10.0 mi North 20.7 mph 25.3 mph N/A   Partly Cloudy
12:35 PM 55.4 °F - 23.0 °F 29% 30.40 in 10.0 mi North 17.3 mph 21.9 mph N/A   Scattered Clouds
12:55 PM 57.2 °F - 24.8 °F 29% 30.40 in 10.0 mi North 19.6 mph 27.6 mph N/A   Mostly Cloudy
1:15 PM 57.2 °F - 24.8 °F 29% 30.39 in 10.0 mi NNW 20.7 mph 28.8 mph N/A   Mostly Cloudy
1:35 PM 57.2 °F - 23.0 °F 27% 30.39 in 10.0 mi NNW 16.1 mph 28.8 mph N/A   Mostly Cloudy
1:55 PM 57.2 °F - 21.2 °F 25% 30.39 in 10.0 mi North 21.9 mph 27.6 mph N/A   Scattered Clouds
2:15 PM 57.2 °F - 23.0 °F 27% 30.39 in 10.0 mi North 20.7 mph 32.2 mph N/A   Partly Cloudy
2:35 PM 57.2 °F - 24.8 °F 29% 30.39 in 10.0 mi North 15.0 mph 24.2 mph N/A   Scattered Clouds
2:55 PM 60.8 °F - 24.8 °F 25% 30.38 in 10.0 mi NNW 17.3 mph 29.9 mph N/A   Scattered Clouds
3:15 PM 57.2 °F - 23.0 °F 27% 30.37 in 10.0 mi North 13.8 mph 25.3 mph N/A   Mostly Cloudy
3:35 PM 59.0 °F - 24.8 °F 27% 30.37 in 10.0 mi North 21.9 mph 26.5 mph N/A   Scattered Clouds
3:55 PM 59.0 °F - 23.0 °F 25% 30.36 in 10.0 mi North 15.0 mph 21.9 mph N/A   Scattered Clouds
4:15 PM 59.0 °F - 23.0 °F 25% 30.35 in 10.0 mi NNW 16.1 mph 27.6 mph N/A   Scattered Clouds
4:35 PM 57.2 °F - 21.2 °F 25% 30.35 in 10.0 mi North 18.4 mph 23.0 mph N/A   Scattered Clouds
4:55 PM 57.2 °F - 21.2 °F 25% 30.33 in 10.0 mi NNE 16.1 mph - N/A   Mostly Cloudy
5:15 PM 59.0 °F - 21.2 °F 23% 30.33 in 10.0 mi North 15.0 mph 25.3 mph N/A   Scattered Clouds
5:35 PM 57.2 °F - 21.2 °F 25% 30.33 in 10.0 mi North 13.8 mph - N/A   Partly Cloudy
5:55 PM 60.8 °F - 23.0 °F 23% 30.32 in 10.0 mi North 19.6 mph 24.2 mph N/A   Clear
6:15 PM 60.8 °F - 21.2 °F 22% 30.32 in 10.0 mi North 20.7 mph 25.3 mph N/A   Partly Cloudy
6:35 PM 60.8 °F - 21.2 °F 22% 30.32 in 10.0 mi North 20.7 mph 26.5 mph N/A   Partly Cloudy
6:55 PM 60.8 °F - 21.2 °F 22% 30.32 in 10.0 mi North 20.7 mph 25.3 mph N/A   Scattered Clouds
7:15 PM 59.0 °F - 21.2 °F 23% 30.32 in 10.0 mi North 18.4 mph 23.0 mph N/A   Partly Cloudy
7:35 PM 59.0 °F - 19.4 °F 22% 30.33 in 10.0 mi North 17.3 mph 23.0 mph N/A   Partly Cloudy
7:55 PM 57.2 °F - 19.4 °F 23% 30.34 in 10.0 mi North 18.4 mph 21.9 mph N/A   Partly Cloudy
8:15 PM 55.4 °F - 19.4 °F 25% 30.34 in 10.0 mi North 17.3 mph - N/A   Clear
8:35 PM 53.6 °F - 17.6 °F 24% 30.35 in 10.0 mi North 10.4 mph - N/A   Clear
8:55 PM 51.8 °F - 17.6 °F 26% 30.36 in 10.0 mi North 8.1 mph - N/A   Clear
9:15 PM 48.2 °F - 15.8 °F 27% 30.36 in 10.0 mi North 5.8 mph - N/A   Clear
9:55 PM 46.4 °F 42.9 °F 15.8 °F 29% 30.37 in 10.0 mi NNW 6.9 mph - N/A   Clear
10:15 PM 44.6 °F 42.2 °F 17.6 °F 34% 30.37 in 10.0 mi NNW 4.6 mph - N/A   Clear
10:35 PM 42.8 °F 38.6 °F 17.6 °F 36% 30.38 in 10.0 mi NW 6.9 mph - N/A   Clear
10:55 PM 42.8 °F 38.0 °F 17.6 °F 36% 30.39 in 10.0 mi NNW 8.1 mph - N/A   Clear
11:15 PM 42.8 °F 39.3 °F 19.4 °F 39% 30.39 in 10.0 mi NW 5.8 mph - N/A   Clear
11:35 PM 39.2 °F 34.2 °F 17.6 °F 42% 30.39 in 10.0 mi NW 6.9 mph - N/A   Clear
11:55 PM 39.2 °F 32.5 °F 19.4 °F 45% 30.39 in 10.0 mi NW 10.4 mph - N/A   Clear